Location: Colorado Springs
(38.8340°N, 104.8210°W)
Time: 22:09:17
(UTC-06:00)

Vanguard 3 - All Passes

Search period start: 24 June 2018 00:00
Search period end: 04 July 2018 00:00
Orbit: 508 x 3264 km, 33.3° (Epoch: 24 June)

Date Brightness Start Highest point End Pass type
(mag) Time Alt. Az. Time Alt. Az. Time Alt. Az.
24 Jun - 02:12:02 10° SSW 02:15:18 22° SSE 02:19:36 10° E visible
24 Jun - 04:21:10 10° WSW 04:26:13 54° S 04:34:56 10° E visible
24 Jun - 06:31:35 10° W 06:38:33 53° S 06:50:57 10° ESE daylight
24 Jun - 08:43:18 10° W 08:52:04 33° SSW 09:05:29 10° SSE daylight
24 Jun - 11:00:41 10° WSW 11:06:22 13° SW 11:12:51 10° SSW daylight
25 Jun - 03:08:34 10° SW 03:12:42 40° SSE 03:19:02 10° E visible
25 Jun - 05:18:36 10° W 05:24:18 56° S 05:34:24 10° ESE daylight
25 Jun - 07:29:31 10° W 07:37:06 40° SSW 07:49:46 10° SE daylight
25 Jun - 09:43:07 10° WSW 09:50:58 20° SSW 10:01:21 10° S daylight
26 Jun - 01:56:20 10° SSW 01:59:31 23° SSE 02:03:35 10° ESE visible
26 Jun - 04:05:48 10° WSW 04:10:28 52° S 04:18:16 10° E visible
26 Jun - 06:16:15 10° W 06:22:35 46° SSW 06:33:37 10° SE daylight
26 Jun - 08:28:09 10° WSW 08:35:49 27° SSW 08:47:13 10° SSE daylight
27 Jun - 00:45:17 10° SSE 00:46:28 11° SSE 00:47:40 10° SE night (unlit)
27 Jun - 02:53:08 10° WSW 02:57:00 40° SSE 03:02:42 10° E visible
27 Jun - 05:03:15 10° W 05:08:29 50° S 05:17:27 10° ESE visible
27 Jun - 07:14:16 10° W 07:21:03 33° SSW 07:32:00 10° SE daylight
27 Jun - 09:28:54 10° WSW 09:34:41 15° SSW 09:41:52 10° S daylight
28 Jun - 01:40:39 10° SW 01:43:49 25° SSE 01:47:40 10° ESE visible
28 Jun - 03:50:27 10° WSW 03:54:47 49° S 04:01:41 10° ESE visible
28 Jun - 06:00:58 10° W 06:06:41 39° SSW 06:16:18 10° SE daylight
28 Jun - 08:13:17 10° WSW 08:19:42 21° SSW 08:28:44 10° SSE daylight
29 Jun - 00:28:45 10° S 00:30:41 14° SSE 00:32:40 10° ESE night (unlit)
29 Jun - 02:37:41 10° WSW 02:41:22 40° S 02:46:29 10° E visible
29 Jun - 04:47:58 10° W 04:52:44 44° S 05:00:36 10° ESE visible
29 Jun - 06:59:11 10° WSW 07:05:06 27° SSW 07:14:09 10° SSE daylight
29 Jun - 09:17:14 10° SW 09:18:32 10° SSW 09:19:53 10° SSW daylight
30 Jun - 01:24:58 10° SW 01:28:10 27° SSE 01:31:50 10° ESE visible
30 Jun - 03:35:06 10° WSW 03:39:08 45° S 03:45:14 10° ESE visible
30 Jun - 05:45:47 10° WSW 05:50:53 32° SSW 05:59:01 10° SE daylight
30 Jun - 07:58:56 10° WSW 08:03:41 15° SSW 08:09:50 10° S daylight
01 Jul - 00:12:28 10° SSW 00:14:59 17° SSE 00:17:27 10° ESE night (unlit)
01 Jul - 02:22:14 10° WSW 02:25:46 40° S 02:30:23 10° ESE visible
01 Jul - 04:32:43 10° WSW 04:37:03 37° S 04:43:49 10° SE visible
01 Jul - 06:44:20 10° WSW 06:49:14 20° SSW 06:56:11 10° SSE daylight
02 Jul - 01:09:17 10° SW 01:12:33 30° SSE 01:16:05 10° ESE night (unlit)
02 Jul - 03:19:46 10° WSW 03:23:31 40° S 03:28:52 10° ESE visible
02 Jul - 05:30:42 10° WSW 05:35:08 25° SSW 05:41:43 10° SE daylight
02 Jul - 07:46:35 10° SSW 07:47:47 10° SSW 07:49:03 10° SSW daylight
02 Jul - 23:56:16 10° SSW 23:59:20 21° SSE 00:02:09 10° ESE night (unlit)
03 Jul - 02:06:45 10° WSW 02:10:11 39° S 02:14:23 10° ESE visible
03 Jul - 04:17:30 10° WSW 04:21:24 30° S 04:27:04 10° SE visible
03 Jul - 06:29:56 10° SW 06:33:26 15° SSW 06:37:53 10° S daylight
03 Jul - 22:43:26 10° SSW 22:45:58 14° SSE 22:48:09 10° SE visible
